DECAYED

OBJECT XH, 65729 (Decayed)

Orbit data source: Space-Track

You're viewing an Uncataloged Satellite

Recently launched and/or uncataloged satellites may have evolving metadata. Metadata may include but not limited to: Owner, Maufacturer, Bus, Motor, and Mission.

OBJECT XH, 65729 was a satellite owned by Kyutech (JP) in LEO that was delivered to and deployed from the ISS. Unknown objects in Earth's orbit typically refer to objects detected orbiting the Earth but have not yet been identified or cataloged. These objects could be anything from previously untracked satellites, spent rocket stages, debris from satellite collisions, or even natural meteoroids temporarily captured by Earth's gravity. This object's orbit decayed before it could be identified.

Not visible in the next 10 days
Identifier
65729, 1998-067XH
Orbit
Decayed
Country
Flag of JPJP / JPN
Related business
Manufacturer
Kyutech
Mission
Decayed Amateur Technology
Bus & Motor
CUBESAT 2U, Unknown motor
Mass
2 kg wet, 2 kg dry
Launch date (UTC)
1998-11-20 (27 years ago)
Launch vehicle
FALCON 9
Launch site
Tyuratam Missile And Space Complex (TTMTR)
Object type
Unknown
Shape & HBR
Box, 0.1 m
Radar Cross Section
0.025 m²

Expand to show TLE details & history
Last TLE update: 2 months ago

TLE from 2 months ago
0 OBJECT XH
1 65729U 98067XH  26031.05194254  .08662331  12285-4  96629-3 0  9997
2 65729  51.6000 237.6139 0006569 265.0285  94.9990 16.36242872 20999
Epoch: 2026-01-31T01:14Z
TLE epoch observation values (Epoch: 2026-01-31T01:14:47.835Z)
Latitude
-0.00001°
Longitude
88.6331°
Altitude
176.958 km
Speed
7.801 km/s
True Right ascension
15h 50m 27s
True Declination
0° 00' 00"
Sunlit
Object was in daylight at epoch
Visualization orbit readout
Latitude
Unknown
Longitude
Unknown
Altitude
Unknown
Speed
Unknown
Apparent Right ascension
Unknown
Apparent Declination
Unknown
Sunlit
N/A
Visualization observer readout
Local Sidereal Time
23:23:33
Azimuth
Unknown
Elevation
Unknown
Doppler factor
Unknown
Orbital elements
Apogee altitude
180.655 km
Perigee altitude
172.044 km
Semi-major axis
6,554.486 km
Eccentricity
0.00066
Inclination
51.6°
RAAN
237.6139°
Arg. of periapsis
265.0285°
True anomaly
95.07398°
Mean anomaly
94.999°
Eccentric anomaly
95.03649°
Mean motion
4.09011 °/min
Orbital period
88.02 mins
BSTAR
0.00096629
Loading maneuver chart data...
Computing Atmospheric mass density...
Loading historical data...
Loading historical data...
Loading historical data...
Loading historical data...
Loading historical data...
Loading historical data...
Loading historical data...

Documentation

Showing up to 5 results
|